Other Public Products
Issued by NWS Grand Forks, ND

Home | Current Version | Previous Version | Graphics & Text | Print | Product List | Glossary On
Versions: 1 2 3 4 5 6 7 8 9 10 11 12 13 14 15 16 17 18 19 20 21 22 23 24 25 26 27 28 29 30 31 32 33 34 35 36 37 38 39 40 41 42 43 44 45 46 47 48 49 50
000
FPUS83 KFGF 231710
OPUFGF
PRAIRIE TO PINES WEATHER ROUNDUP
NATIONAL WEATHER SERVICE EASTERN NORTH DAKOTA/GRAND FORKS ND
1200 PM CDT SAT JUL 23 2016

 **SATELLITE DATA USED TO AUGMENT SKY COVER AT AUTOMATED STATIONS**
 *****  WEATHER ACROSS EASTERN NORTH DAKOTA  *****

CITY           SKY/WX    TMP DP  RH WIND       PRES   REMARKS
GRAND FORKS    TSTM      67  63  87 N14       29.78R
GRAND FORKS AF LGT RAIN  66  64  94 NW13      29.85R
GRAND CITY NWS   N/A     66 N/A N/A N12         N/A
BUXTON           N/A     82  70  68 NE5         N/A
DEVILS LAKE    CLOUDY    66  63  90 E14       29.72F
FARGO          CLOUDY    80  70  71 SE12      29.71S
WAHPETON ARPT  CLOUDY    75  66  73 SE9       29.72R
$$

 *****  WEATHER ACROSS CENTRAL AND WESTERN NORTH DAKOTA  *****

CITY           SKY/WX    TMP DP  RH WIND       PRES   REMARKS
JAMESTOWN      CLOUDY    65  64  97 NE8       29.76F
BISMARCK       CLOUDY    72  66  81 E5        29.77F
MINOT          CLOUDY    71  65  81 NW6       29.79S
MINOT AFB      CLOUDY    69  64  85 NW8       29.79S
GARRISON         N/A     69  66  90 W8        29.81R
WILLISTON      SUNNY     79  51  37 W21G29    29.83F
DICKINSON      MOSUNNY   75  57  53 NW18G30   29.86R
HETTINGER      SUNNY     80  56  43 NW28G36   29.88R
$$

 *****  OTHER OBSERVATIONS NORTHEAST NORTH DAKOTA  *****

CITY           SKY/WX    TMP DP  RH WIND       PRES   REMARKS
WALHALLA       FAIR      64  64 100 SE18      29.75F
LANGDON        PTSUNNY   64  64 100 E13       29.72F FOG
CAVALIER       LGT RAIN  64  64 100 MISG      29.83F
GRAFTON        LGT RAIN  64  64 100 N10       29.83F
CANDO          NOT AVBL
FORT TOTTEN      N/A     65  64  98 E7        29.95S
ROLLA            N/A     72  64  78 E5        29.77F
RUGBY          NOT AVBL
 ***** THE ABOVE OBSERVATIONS ARE NON NWS ARE NOT QUALITY
        CONTROLLED AND MAY MIS-REPORT RAIN FOR SNOW...
$$

 *****  OTHER OBSERVATIONS SOUTHEAST NORTH DAKOTA *****

CITY           SKY/WX    TMP DP  RH WIND       PRES   REMARKS
COOPERSTOWN    NOT AVBL
VALLEY CITY    TSTM      64  64 100 N22G32    29.84R VSB 1
OAKES            N/A    N/A N/A N/A MISG        N/A
GWINNER        CLOUDY    79  72  78 SW9       29.74R
SHEYENNE NWR     N/A     79  70  74 SW9       29.95
BUFFALO          N/A     76  69  77 NW6         N/A
WYNDMERE         N/A     79  70  73 S5          N/A
 ***** THE ABOVE OBSERVATIONS ARE NON NWS ARE NOT QUALITY
       CONTROLLED AND MAY MIS-REPORT RAIN FOR SNOW...
$$

  *****  WEATHER ACROSS NORTHERN MINNESOTA  *****

CITY           SKY/WX    TMP DP  RH WIND       PRES   REMARKS
FLAG ISLAND    CLOUDY    72  63  73 CALM      29.87F
WARROAD        CLOUDY    72  66  83 E7        29.84F
ROSEAU         CLOUDY    72  66  83 E6        29.83F
HALLOCK        LGT RAIN  66  64  94 NE12      29.82F
THF RVR FALLS  CLOUDY    75  66  73 E9        29.79F
HALSTAD        NOT AVBL
FOSSTON        CLOUDY    81  66  61 SE12G20   29.78F
BAUDETTE       CLOUDY    75  63  66 E8        29.84F
WASKISH        CLOUDY    77  64  65 E8        29.83F
CROOKSTON      CLOUDY    82  66  57 E9        29.76F
$$
  *****  WEATHER ACROSS CENTRAL AND WEST MINNESOTA  *****

CITY           SKY/WX    TMP DP  RH WIND       PRES   REMARKS
BEMIDJI        CLOUDY    79  63  57 SE15      29.83F
PARK RAPIDS    CLOUDY    78  65  63 SE13G22   29.83R
WADENA         CLOUDY    72  64  78 SE9       29.81R
DETROIT LAKES  CLOUDY    77  64  65 SE17G23   29.78R
MOORHEAD       CLOUDY    79  70  73 S9        29.73R
FERGUS FALLS   CLOUDY    75  66  73 SE14      29.75R
ELBOW LAKE     FAIR      71  67  87 SE13      29.76S
MORRIS MN      LGT RAIN  72  70  94 CALM      29.78R
STAPLES        TSTM      72  64  78 SE8       29.83F
WHEATON        NOT AVBL
$$
  *****  WEATHER ELSEWHERE ACROSS MINNESOTA  *****

CITY           SKY/WX    TMP DP  RH WIND       PRES   REMARKS
DULUTH         CLOUDY    76  63  64 E13       29.95R
INTRNTL FALLS  MOSUNNY   78  62  57 SE10      29.87F
ELY            CLOUDY    81  57  44 SE14      29.91F
CLOQUET        CLOUDY    75  61  60 E7        29.94R
BRAINERD       CLOUDY    73  66  78 SE6       29.87R
HIBBING        CLOUDY    77  59  53 SE14G22   29.91R
ALEXANDRIA     LGT RAIN  69  67  93 NE9       29.82S
SAINT CLOUD    TSTM      69  69 100 E6        29.89F FOG
MINNEAPOLIS    HVY RAIN  73  70  90 S16       29.93R FOG
$$

  *****  WEATHER ACROSS SOUTH DAKOTA  *****

CITY           SKY/WX    TMP DP  RH WIND       PRES   REMARKS
SIOUX FALLS    CLOUDY    83  75  77 S15       29.79F HX  90
BROOKINGS      MOSUNNY   81  74  79 S18G25    29.77R
WATERTOWN      CLOUDY    82  70  66 S10       29.76R
HURON          CLOUDY    83  71  67 S24G32    29.72F
SISSETON         N/A     78  70  76 SW6       29.71S
ABERDEEN       CLOUDY    81  70  69 S12       29.71S
MITCHELL       CLOUDY    84  72  67 S16       29.76F
PIERRE         SUNNY     92  68  45 W15       29.70F HX  96
MOBRIDGE       PTSUNNY   85  74  69 NW9       29.70F HX  92
RAPID CITY     SUNNY     85  46  25 NW35G45   29.93R
$$

  *****  SOME WEATHER IN NEARBY STATES *****

CITY           SKY/WX    TMP DP  RH WIND       PRES   REMARKS
GLASGOW MT     SUNNY     75  48  38 W26G33    29.87S
GREAT FALLS MT CLOUDY    74  40  29 NW15G23   30.08F
CHEYENNE WY    SUNNY     88  36  15 W13G22    30.16S
SCOTTSBLUFF NE SUNNY     89  48  24 NW16      30.00R
OMAHA NE       CLOUDY    83  73  72 SE10      29.83R
DES MOINES IA  PTSUNNY   88  77  69 S12       29.86S HX 100
DAVENPORT IA   CLOUDY    86  78  77 SE8       29.97F HX  98
CHICAGO IL     CLOUDY    88  72  58 W7        29.98F HX  94
EAU CLAIRE WI  CLOUDY    79  69  71 SW14      29.98R
LA CROSSE WI   TSTM      74  72  93 W9        30.02R FOG
$$

  *****  SOME NATIONAL WEATHER *****

CITY           SKY/WX    TMP DP  RH WIND       PRES   REMARKS
LA GUARDIA NY  MOSUNNY   94  59  31 W16       29.83F HX  93
RALEIGH NC     MOSUNNY   90  73  57 W5        30.01S HX  98
ATLANTA GA     CLOUDY    90  71  53 VRB7      30.04F HX  96
NEW ORLEANS LA CLOUDY    90  75  61 NW5       30.00F HX 100
OKLAHOMA CITY  MOSUNNY   95  68  41 S15G21    29.98F HX  99
ALBUQUERQUE NM MOSUNNY   87  49  26 NW5       30.19F
SALT LAKE CITY MOSUNNY   84  38  19 NW6       30.14F
LOS ANGELES CA PTSUNNY   83  60  45 CALM      29.83R
BOISE ID       SUNNY     69  44  40 NW8       30.19S
SEATTLE WA     CLOUDY    61  56  83 W6        30.28F
$$

*** WEATHER ACROSS MANITOBA...SASKATCHEWAN AND ONTARIO ***
                ***ONTARIO***

CITY           SKY/WX    TMP DP  RH WIND       PRES   REMARKS
GERALDTON      PTSUNNY   73  54  49 NE6       30.02F
THUNDER BAY    PTSUNNY   75  61  60 E14       29.98F
SIOUX LOOKOUT  PTSUNNY   75  63  64 S8        29.93F
TORONTO        PTSUNNY   90  54  29 NW18G28   29.92S
BIG TROUT LK   SUNNY     66  46  48 SE9       29.97S
PICKLE LAKE    PTSUNNY   75  57  53 S10       29.96S
DRYDEN         PTSUNNY   75  61  60 S7        29.91F
KENORA         LGT RAIN  70  61  73 SW7       29.92R
$$
                *** MANITOBA***

CITY           SKY/WX    TMP DP  RH WIND       PRES   REMARKS
BRANDON        PTSUNNY   73  66  78 S3        29.76S
DAUPHIN        LGT RAIN  66  64  94 S3        29.76R
ISLAND LAKE    NOT AVBL
PILOT MOUND      N/A     68  64  88 NE7         N/A
THE PAS        LGT RAIN  70  61  73 SE6       29.75S
THOMPSON       PTSUNNY   72  55  56 S9G21     29.77F
WINNIPEG       LGT RAIN  64  63  94 SE12G20   29.82F
LYNN LAKE      LGT RAIN  63  59  88 MISG      29.73R
CHURCHILL      CLOUDY    61  48  63 SE8       29.75F
GILLAM         MOSUNNY   73  48  40 S17G23    29.82S
$$
                ***SASKATCHEWAN***

CITY           SKY/WX    TMP DP  RH WIND       PRES   REMARKS
ESTEVAN        MOSUNNY   73  57  56 W16G24    29.79R
KINDERSLEY     MOSUNNY   68  55  64 N15G25    29.86R
LLOYDMINSTER   MOSUNNY   68  54  60 NW15G24   29.86R
PRINCE ALBERT  LGT RAIN  64  63  94 NW6       29.74R
REGINA         PTSUNNY   68  61  77 W20       29.72R
YORKTON        CLOUDY    68  64  88 SE15      29.68F  C1F1C2F2C3F3C4F4C5F5C6F6C7F7C8F8C9F9CaFaCbFbCcFcCdFdCe!


USA.gov is the U.S. government's official web portal to all federal, state and local government web resources and services.